Home > Weather > Constantine > Past weeks

Flag for Algeria Past Weather in Constantine, Algeria — Yesterday and Last 2 Weeks

Now
79 °F

Sunny.


Feels Like: 79 °F
Forecast: 53 / 70 °F
Wind: 14 mph from North

Location: Constantine Airport

Current Time: May 30, 2016 at 5:35:23 PM

Latest Report: May 30, 2016 at 5:00 PM


Visibility: 10 mi

Pressure: 30.01 "Hg (28.16 "Hg at 557m altitude)

Humidity: 34%

Dew Point: 48 °F

Location of ConstantineLocation

Past Weather in Constantine — Graph

°F

Constantine Temperature Yesterday

Maximum temperature yesterday: 81 °F (at 1:30 PM)
Minimum temperature yesterday: 57 °F (at 10:00 PM)
Average temperature yesterday: 69 °F

High & Low Weather Summary for the Past Weeks

 TemperatureHumidityPressure
High106 °F (May 27, 2:30 PM)100% (May 24, 2:00 AM)30.24 "Hg (May 24, 2:00 AM)
Low41 °F (May 21, 5:00 AM)9% (May 26, 3:00 PM)29.92 "Hg (May 25, 4:00 PM)
Average69 °F56%30.08 "Hg
* Reported May 15 4:00 PM — May 30 4:30 PM, Constantine, Weather by CustomWeather, © 2016

Note: Actual official high and low records may vary slightly from our data, if they occured in-between our weather recording intervals... More about our weather records

Advertising

Constantine Weather History for the Previous 24 Hours

Scroll right to see more
 ConditionsComfort  
Time TempWeatherWind HumidityBarometerVisibility
4:30 PM
Mon, May 30
81 °FSunny.15 mph32%30.01 "Hg10 mi
4:00 PM82 °FPassing clouds.12 mph26%30.01 "HgN/A
3:30 PM84 °FPassing clouds.10 mph23%30.01 "HgN/A
3:00 PM84 °FPassing clouds.7 mph22%30.04 "HgN/A
2:30 PM82 °FSunny.7 mph23%30.04 "Hg10 mi
2:00 PM82 °FSunny.6 mph23%30.04 "Hg10 mi
1:30 PM82 °FSunny.5 mph23%30.04 "Hg10 mi
1:00 PM82 °FPassing clouds.7 mph26%30.07 "HgN/A
12:30 PM81 °FPassing clouds.5 mph28%30.07 "HgN/A
12:00 PM79 °FPassing clouds.5 mph30%30.07 "HgN/A
11:30 AM77 °FSunny.3 mph34%30.09 "Hg10 mi
11:00 AM75 °FSunny.5 mph34%30.09 "Hg10 mi
10:30 AM73 °FPassing clouds.6 mph36%30.09 "HgN/A
10:00 AM72 °FPassing clouds.3 mph38%30.12 "HgN/A
9:30 AM72 °FPassing clouds.3 mph41%30.12 "HgN/A
9:00 AM68 °FPassing clouds.5 mph43%30.12 "HgN/A
8:30 AM66 °FPassing clouds.6 mph46%30.12 "HgN/A
8:00 AM63 °FSunny.5 mph52%30.12 "Hg10 mi
7:30 AM61 °FSunny.No wind55%30.12 "Hg10 mi
7:00 AM59 °FSunny.3 mph63%30.12 "Hg10 mi
6:30 AM54 °FSunny.3 mph77%30.12 "Hg10 mi
6:00 AM52 °FSunny.No wind72%30.09 "Hg10 mi
5:30 AM50 °FSunny.No wind76%30.09 "Hg10 mi
5:00 AM52 °FClear.No wind72%30.09 "Hg10 mi
4:30 AM52 °FClear.No wind72%30.09 "Hg10 mi
4:00 AM52 °FClear.No wind67%30.09 "Hg10 mi
3:30 AM54 °FClear.No wind67%30.12 "Hg10 mi
3:00 AM54 °FClear.No wind67%30.12 "Hg10 mi
2:30 AM55 °FClear.No wind63%30.12 "Hg10 mi
2:00 AM57 °FClear.2 mph63%30.12 "Hg10 mi
1:30 AM57 °FClear.No wind59%30.12 "Hg10 mi
1:00 AM59 °FClear.No wind55%30.12 "Hg10 mi
12:30 AM59 °FClear.No wind59%30.15 "Hg10 mi
12:00 AM57 °FClear.No wind59%30.15 "Hg10 mi
11:30 PM
Sun, May 29
57 °FClear.No wind59%30.15 "Hg10 mi
11:00 PM59 °FClear.3 mph59%30.15 "Hg10 mi
10:30 PM59 °FClear.No wind59%30.15 "Hg10 mi
10:00 PM57 °FClear.3 mph63%30.15 "Hg10 mi
9:30 PM59 °FClear.6 mph59%30.12 "Hg10 mi
9:00 PM61 °FClear.5 mph59%30.12 "Hg10 mi
8:30 PM63 °FClear.9 mph56%30.09 "Hg10 mi
8:00 PM63 °FClear.14 mph56%30.09 "Hg10 mi
7:30 PM63 °FPassing clouds.14 mph59%30.09 "HgN/A
7:00 PM66 °FPassing clouds.14 mph52%30.09 "HgN/A
6:30 PM68 °FPassing clouds.13 mph53%30.07 "HgN/A
6:00 PM70 °FPassing clouds.15 mph50%30.07 "HgN/A
5:30 PM72 °FPassing clouds.16 mph50%30.04 "HgN/A
5:00 PM73 °FPassing clouds.15 mph47%30.04 "HgN/A
Weather by CustomWeather, © 2016

See weather overviewHow to use our weather pages